Simultaneous Nadir Overpasses (SNOs) Predictions

Prediction of SNOs between METOP-B and NOAA-19 Satellite Orbit:

Table of predicted SNOs for the next 14.0 days since TLE Epoch: 6/1/2019
Index Date (METOP-B) Time (METOP-B) Lat,Lon (METOP-B) SZA (METOP-B ) Date (NOAA-19) Time (NOAA-19) Lat,Lon (NOAA-19) SZA (NOAA-19 ) Distance(km) Time Diff (sec)
1 06/02/2019 08:12:18 79.28, 72.85 57.54 06/02/2019 08:11:06 79.25, 72.89 57.50 2.74 72
2 06/02/2019 09:03:00 -79.27,-119.91 122.49 06/02/2019 09:02:08 -79.26,-119.90 122.51 0.97 52
3 06/02/2019 09:53:40 79.26, 47.41 57.51 06/02/2019 09:53:07 79.26, 47.34 57.49 1.40 33
4 06/02/2019 10:44:22 -79.25,-145.35 122.52 06/02/2019 10:44:09 -79.26,-145.44 122.52 2.07 13
5 06/02/2019 11:35:02 79.25, 21.96 57.48 06/02/2019 11:35:07 79.23, 22.07 57.47 2.95 5
6 06/02/2019 12:25:44 -79.24,-170.80 122.55 06/02/2019 12:26:09 -79.24,-170.71 122.54 1.88 25
7 06/02/2019 13:16:24 79.24, -3.48 57.45 06/02/2019 13:17:08 79.24, -3.47 57.46 0.34 44
8 06/02/2019 14:07:06 -79.23, 163.76 122.57 06/02/2019 14:08:10 -79.24, 163.75 122.54 1.74 64
9 06/13/2019 07:44:21 79.30, 80.03 56.51 06/13/2019 07:43:12 79.30, 79.89 56.48 3.05 69
10 06/13/2019 08:35:03 -79.30,-112.68 123.50 06/13/2019 08:34:16 -79.29,-112.76 123.53 2.09 47
11 06/13/2019 09:25:43 79.29, 54.59 56.49 06/13/2019 09:25:12 79.27, 54.61 56.47 1.84 31
12 06/13/2019 10:16:25 -79.28,-138.13 123.53 06/13/2019 10:16:16 -79.26,-138.03 123.55 3.47 9
13 06/13/2019 11:07:05 79.28, 29.14 56.46 06/13/2019 11:07:13 79.28, 29.07 56.47 1.57 8
14 06/13/2019 11:57:47 -79.27,-163.57 123.55 06/13/2019 11:58:17 -79.26,-163.57 123.55 0.68 30
15 06/13/2019 12:48:27 79.26, 3.69 56.44 06/13/2019 12:49:13 79.25, 3.79 56.45 2.22 46
16 06/13/2019 13:39:09 -79.26, 170.98 123.57 06/13/2019 13:40:18 -79.27, 170.89 123.55 2.41 69




NCC Satellite Simultaneous Nadir Overpasses (SNOs) Prediction Service
